Zurück zum Katalog

STARLINK-30404

AktivKommunikationVLEO
NORAD 57853·PAYLOAD·🇺🇸 United States

Gestartet Sep 12, 2023 von Vandenberg Space Force Base

Loading…

Nächste Überflüge (nächste 24 Stunden)

TLE

AktuellSource: CelesTrak SupGP

Epoche: Sep 15, 2026, 02:50 UTC

1 57853C 23141P   26258.11854167  .00033667  00000+0  99484-3 0  2584
2 57853  53.1566 122.5181 0001040  86.3097 315.3845 15.34369481    18

Verfolge STARLINK-30404 in Echtzeit mit AllMySat

Download on the App Store